TimeCST,TemperatureF,Dew PointF,Humidity,Sea Level PressureIn,VisibilityMPH,Wind Direction,Wind SpeedMPH,Gust SpeedMPH,PrecipitationIn,Events,Conditions,WindDirDegrees,DateUTC
12:52 AM,19.0,15.1,85,30.22,10.0,NW,13.8,-,N/A,,Clear,320,2013-03-08 06:52:00
1:52 AM,16.0,12.0,84,30.25,10.0,WNW,11.5,-,N/A,,Clear,300,2013-03-08 07:52:00
2:52 AM,15.1,10.9,84,30.26,10.0,WNW,9.2,-,N/A,,Clear,300,2013-03-08 08:52:00
3:52 AM,15.1,10.9,84,30.24,10.0,NNW,16.1,-,N/A,,Clear,330,2013-03-08 09:52:00
4:52 AM,12.9,10.0,88,30.26,10.0,Calm,Calm,-,N/A,,Partly Cloudy,0,2013-03-08 10:52:00
5:52 AM,12.0,9.0,88,30.28,10.0,Calm,Calm,-,N/A,,Clear,0,2013-03-08 11:52:00
6:52 AM,6.1,3.9,91,30.30,9.0,Calm,Calm,-,N/A,,Partly Cloudy,0,2013-03-08 12:52:00
7:52 AM,6.1,5.0,95,30.28,10.0,NNW,5.8,-,N/A,,Clear,330,2013-03-08 13:52:00
8:52 AM,10.9,7.0,84,30.28,9.0,ENE,3.5,-,N/A,,Clear,70,2013-03-08 14:52:00
9:52 AM,14.0,9.0,80,30.27,10.0,NE,4.6,-,N/A,,Clear,40,2013-03-08 15:52:00
10:52 AM,15.1,10.0,80,30.27,10.0,NE,4.6,-,N/A,,Mostly Cloudy,40,2013-03-08 16:52:00
11:52 AM,17.1,10.9,77,30.26,10.0,NNE,4.6,-,N/A,,Overcast,20,2013-03-08 17:52:00
12:52 PM,18.0,10.9,74,30.25,10.0,Variable,4.6,-,N/A,,Overcast,0,2013-03-08 18:52:00
1:52 PM,21.0,14.0,74,30.23,10.0,Calm,Calm,-,N/A,,Overcast,0,2013-03-08 19:52:00
2:52 PM,23.0,15.1,72,30.19,10.0,Calm,Calm,-,N/A,,Overcast,0,2013-03-08 20:52:00
3:52 PM,23.0,17.1,78,30.17,10.0,ENE,6.9,-,N/A,,Overcast,60,2013-03-08 21:52:00
4:52 PM,23.0,17.1,78,30.15,10.0,NE,5.8,-,N/A,,Overcast,50,2013-03-08 22:52:00
5:40 PM,24.8,19.4,80,30.03,2.5,ESE,8.1,-,0.00,Snow,Light Snow,110,2013-03-08 23:40:00
5:52 PM,24.1,19.9,84,30.14,1.5,East,4.6,-,0.01,Snow,Light Snow,100,2013-03-08 23:52:00
6:43 PM,23.0,21.2,93,30.02,0.8,ENE,4.6,-,0.01,Snow,Light Snow,70,2013-03-09 00:43:00
6:52 PM,23.0,21.0,92,30.14,0.8,Calm,Calm,-,0.01,Snow,Light Snow,0,2013-03-09 00:52:00
6:57 PM,23.0,21.2,93,30.02,1.0,Calm,Calm,-,0.00,Snow,Light Snow,0,2013-03-09 00:57:00
7:15 PM,23.0,21.2,93,30.01,1.0,NE,3.5,-,0.02,Snow,Light Snow,50,2013-03-09 01:15:00
7:27 PM,23.0,21.2,93,30.01,1.2,NNE,3.5,-,0.02,Snow,Light Snow,30,2013-03-09 01:27:00
7:52 PM,23.0,21.9,96,30.13,1.0,NNE,5.8,-,0.04,Snow,Light Snow,30,2013-03-09 01:52:00
8:23 PM,24.8,23.0,93,30.00,2.5,East,3.5,-,0.01,Snow,Light Snow,100,2013-03-09 02:23:00
8:31 PM,23.0,23.0,100,30.00,3.0,SE,3.5,-,0.01,Snow,Light Snow,130,2013-03-09 02:31:00
8:36 PM,23.0,23.0,100,30.00,4.0,Calm,Calm,-,0.01,Snow,Light Snow,0,2013-03-09 02:36:00
8:52 PM,24.1,21.9,91,30.12,7.0,Calm,Calm,-,0.01,,Overcast,0,2013-03-09 02:52:00
9:16 PM,24.8,23.0,93,30.00,7.0,SSW,3.5,-,N/A,,Overcast,200,2013-03-09 03:16:00
9:52 PM,25.0,21.9,88,30.11,9.0,SSE,5.8,-,N/A,,Overcast,160,2013-03-09 03:52:00
10:52 PM,25.0,23.0,92,30.10,10.0,Calm,Calm,-,N/A,,Overcast,0,2013-03-09 04:52:00
11:52 PM,25.0,21.9,88,30.08,9.0,Calm,Calm,-,N/A,,Overcast,0,2013-03-09 05:52:00